| Date | Time | Temp. (oF) | Dew Point (oF) | Rel. Hum. (%) | Press. (in.) | Wind Dir. | Wind Speed (mph) | Hourly Rainfall (in.) |
|
|---|---|---|---|---|---|---|---|---|---|
| 1 | 01/18 | 00:00 | 34 | 27 | 77 | 30.27 | SW | 1 | 0.00 |
| 2 | 01/17 | 23:00 | 36 | 29 | 77 | 30.27 | NW | 1 | 0.00 |
| 3 | 01/17 | 22:00 | 36 | 29 | 77 | 30.28 | WSW | 2 | 0.00 |
| 4 | 01/17 | 21:00 | 36 | 28 | 75 | 30.27 | W | 1 | 0.00 |
| 5 | 01/17 | 20:00 | 36 | 28 | 75 | 30.26 | WSW | 2 | 0.00 |
| 6 | 01/17 | 19:00 | 37 | 29 | 73 | 30.25 | WSW | 1 | 0.00 |
| 7 | 01/17 | 18:00 | 37 | 28 | 71 | 30.24 | W | 3 | 0.00 |
| 8 | 01/17 | 17:00 | 39 | 28 | 67 | 30.23 | SSW | 4 | 0.00 |
| 9 | 01/17 | 16:00 | 39 | 28 | 66 | 30.22 | SSW | 3 | 0.00 |
| 10 | 01/17 | 15:00 | 39 | 29 | 68 | 30.20 | WSW | 3 | 0.00 |
| 11 | 01/17 | 14:00 | 39 | 28 | 67 | 30.20 | W | 2 | 0.00 |
| 12 | 01/17 | 13:00 | 39 | 29 | 68 | 30.22 | SW | 3 | 0.00 |
| 13 | 01/17 | 12:00 | 39 | 29 | 68 | 30.21 | WSW | 3 | 0.00 |
| 14 | 01/17 | 11:00 | 39 | 29 | 68 | 30.24 | W | 4 | 0.00 |
| 15 | 01/17 | 10:00 | 38 | 29 | 70 | 30.26 | SSW | 3 | 0.00 |
| 16 | 01/17 | 09:00 | 38 | 30 | 73 | 30.25 | WSW | 3 | 0.00 |
| 17 | 01/17 | 08:00 | 36 | 29 | 77 | 30.25 | SW | 5 | 0.00 |
| 18 | 01/17 | 07:00 | 34 | 29 | 82 | 30.24 | WNW | 2 | 0.00 |
| 19 | 01/17 | 06:00 | 33 | 28 | 82 | 30.22 | WSW | 2 | 0.00 |
| 20 | 01/17 | 05:00 | 35 | 28 | 76 | 30.21 | WSW | 1 | 0.00 |
| 21 | 01/17 | 04:00 | 37 | 29 | 75 | 30.21 | SW | 1 | 0.00 |
| 22 | 01/17 | 03:00 | 36 | 29 | 77 | 30.22 | SW | 0 | 0.00 |
| 23 | 01/17 | 02:00 | 36 | 28 | 74 | 30.22 | SE | 1 | 0.00 |
| 24 | 01/17 | 01:00 | 37 | 29 | 75 | 30.22 | SSW | 3 | 0.00 |